Total_Precipitation_Accumulation
0.61 0.85 1.12 1.06 0.98 1.06 1.10 1.21 1.24 1.15 0.87 0.91 0.93 0.79 0.75 0.76 0.79 0.76 0.68 0.57 0.55 0.57 0.56 0.53 0.56 0.62 0.64 0.68 0.69 0.70 0.68 0.74 0.77 0.81 0.96 1.20 1.48 1.59 1.68 1.59 1.39 1.34 1.47 1.77
0.70 0.76 0.66 0.61 0.70 0.90 1.05 1.27 1.24 1.11 0.78 0.75 0.78 0.69 0.61 0.60 0.67 0.62 0.59 0.57 0.50 0.51 0.46 0.43 0.46 0.50 0.53 0.55 0.61 0.65 0.65 0.71 0.73 0.78 0.96 1.14 1.31 1.32 1.47 1.58 1.55 1.47 1.46 1.64
0.68 0.64 0.51 0.55 0.69 0.93 1.04 1.07 1.04 1.02 0.83 0.73 0.71 0.78 0.60 0.52 0.56 0.53 0.47 0.49 0.45 0.46 0.47 0.45 0.43 0.46 0.47 0.47 0.47 0.50 0.53 0.61 0.71 0.83 1.05 1.29 1.53 1.61 1.63 1.53 1.60 1.61 1.51 1.58
0.61 0.51 0.49 0.61 0.70 0.77 0.97 0.71 0.65 0.72 0.94 1.01 0.82 1.04 0.71 0.57 0.62 0.55 0.46 0.42 0.39 0.42 0.46 0.54 0.50 0.49 0.46 0.45 0.44 0.47 0.54 0.68 0.88 1.06 1.28 1.52 1.72 1.78 1.65 1.64 1.66 1.55 1.46 1.45
0.55 0.46 0.47 0.60 0.58 0.55 0.65 0.55 0.54 0.62 0.84 0.84 0.64 0.78 0.69 0.57 0.70 0.64 0.52 0.46 0.40 0.40 0.43 0.47 0.48 0.51 0.52 0.53 0.59 0.61 0.76 0.98 1.22 1.43 1.69 1.98 1.95 1.83 1.74 1.68 1.64 1.59 1.57 1.53
0.46 0.38 0.43 0.46 0.44 0.43 0.47 0.56 0.63 0.71 0.91 0.91 0.55 0.65 0.71 0.55 0.58 0.63 0.58 0.49 0.41 0.37 0.44 0.54 0.62 0.71 0.79 0.83 0.99 1.18 1.38 1.52 1.61 1.73 1.88 2.00 1.96 1.96 1.91 1.71 1.61 1.59 1.64 1.69
0.49 0.40 0.34 0.32 0.44 0.45 0.49 0.84 1.23 1.26 1.23 0.87 0.45 0.64 0.71 0.51 0.44 0.48 0.51 0.43 0.37 0.39 0.49 0.65 0.83 0.97 1.11 1.27 1.43 1.56 1.71 1.84 1.78 1.75 1.81 1.85 1.83 1.80 1.80 1.73 1.65 1.58 1.58 1.62
0.57 0.54 0.34 0.28 0.36 0.48 0.53 0.79 1.28 1.41 1.17 0.81 0.59 0.85 0.79 0.56 0.44 0.37 0.32 0.29 0.40 0.54 0.67 0.79 0.88 1.01 1.19 1.38 1.47 1.47 1.55 1.67 1.66 1.62 1.61 1.59 1.63 1.62 1.58 1.50 1.47 1.52 1.60 1.58
0.41 0.42 0.23 0.22 0.27 0.36 0.52 0.58 0.63 0.92 0.78 0.76 0.78 0.90 0.80 0.53 0.46 0.39 0.35 0.37 0.53 0.75 0.95 1.11 1.22 1.35 1.40 1.46 1.55 1.46 1.46 1.53 1.54 1.49 1.44 1.47 1.46 1.50 1.50 1.42 1.42 1.41 1.40 1.32
0.26 0.33 0.22 0.20 0.26 0.30 0.42 0.55 0.75 1.10 1.24 1.21 1.06 1.04 0.94 0.71 0.61 0.63 0.69 0.77 0.82 0.93 1.19 1.49 1.77 1.94 1.78 1.54 1.47 1.45 1.38 1.40 1.49 1.51 1.45 1.43 1.51 1.51 1.47 1.46 1.40 1.37 1.38 1.29
0.20 0.32 0.30 0.27 0.31 0.34 0.43 0.60 0.77 1.02 1.14 1.45 1.62 1.50 1.13 1.12 1.12 1.16 1.23 1.26 1.27 1.36 1.34 1.51 1.73 1.93 1.86 1.55 1.32 1.35 1.42 1.43 1.45 1.46 1.46 1.45 1.43 1.34 1.32 1.34 1.32 1.28 1.28 1.32
0.18 0.30 0.35 0.28 0.29 0.36 0.53 0.68 0.89 1.28 1.20 1.18 1.48 1.53 1.18 1.16 1.19 1.27 1.42 1.46 1.46 1.37 1.27 1.26 1.31 1.39 1.48 1.38 1.17 1.12 1.28 1.38 1.38 1.38 1.41 1.39 1.28 1.19 1.19 1.18 1.09 0.98 0.92 0.93
0.23 0.37 0.51 0.50 0.58 0.57 0.75 0.80 0.70 0.76 0.91 1.04 1.32 1.24 0.83 0.75 0.91 1.08 1.23 1.30 1.24 1.20 1.28 1.25 1.16 1.08 1.13 1.14 1.08 1.04 1.18 1.33 1.39 1.39 1.28 1.17 1.10 1.08 1.11 1.04 0.96 0.91 0.80 0.75
0.23 0.32 0.43 0.61 0.63 0.61 0.78 0.87 0.74 0.73 0.90 0.87 0.83 0.76 0.59 0.60 0.75 0.84 0.88 0.88 0.90 0.99 1.02 0.98 0.94 0.85 0.83 0.89 0.93 0.97 1.11 1.20 1.33 1.45 1.36 1.22 1.13 1.10 1.08 1.04 1.00 0.92 0.86 0.83
0.20 0.22 0.20 0.22 0.25 0.34 0.53 0.63 0.56 0.49 0.50 0.59 0.53 0.53 0.58 0.64 0.71 0.69 0.65 0.64 0.64 0.66 0.66 0.69 0.73 0.70 0.64 0.62 0.61 0.70 0.86 1.02 1.22 1.47 1.45 1.30 1.25 1.21 1.10 1.04 1.03 1.00 1.00 0.93
0.17 0.19 0.17 0.15 0.16 0.22 0.33 0.37 0.31 0.25 0.32 0.44 0.49 0.55 0.58 0.64 0.70 0.64 0.56 0.50 0.45 0.44 0.47 0.53 0.57 0.64 0.55 0.48 0.47 0.49 0.59 0.79 0.96 1.16 1.25 1.21 1.13 1.03 1.01 1.03 1.00 0.94 0.92 0.87
0.17 0.21 0.24 0.17 0.15 0.21 0.29 0.26 0.27 0.31 0.34 0.39 0.51 0.61 0.62 0.73 0.91 0.81 0.64 0.55 0.44 0.37 0.37 0.42 0.44 0.52 0.54 0.49 0.46 0.48 0.53 0.62 0.76 0.92 1.02 1.01 0.95 0.86 0.87 0.92 0.89 0.84 0.78 0.78
0.14 0.23 0.34 0.30 0.32 0.44 0.38 0.28 0.35 0.46 0.42 0.43 0.53 0.59 0.66 0.96 1.16 0.78 0.55 0.50 0.44 0.37 0.35 0.37 0.41 0.44 0.44 0.46 0.47 0.47 0.46 0.49 0.55 0.64 0.72 0.75 0.76 0.75 0.76 0.78 0.79 0.83 0.79 0.72
0.10 0.23 0.40 0.43 0.46 0.61 0.50 0.30 0.42 0.49 0.46 0.38 0.49 0.55 0.55 0.59 0.54 0.35 0.24 0.25 0.28 0.24 0.24 0.24 0.26 0.28 0.32 0.34 0.37 0.39 0.43 0.46 0.44 0.46 0.50 0.55 0.58 0.63 0.69 0.72 0.74 0.87 0.87 0.79
0.10 0.18 0.36 0.41 0.44 0.50 0.47 0.26 0.29 0.42 0.53 0.28 0.29 0.32 0.27 0.23 0.25 0.25 0.21 0.16 0.15 0.14 0.15 0.15 0.15 0.16 0.21 0.26 0.29 0.31 0.37 0.42 0.43 0.43 0.45 0.50 0.51 0.55 0.63 0.72 0.76 0.74 0.71 0.74
0.14 0.20 0.29 0.34 0.35 0.29 0.24 0.22 0.28 0.52 0.55 0.26 0.23 0.22 0.18 0.19 0.20 0.23 0.24 0.17 0.13 0.11 0.12 0.13 0.13 0.15 0.18 0.26 0.31 0.32 0.36 0.39 0.40 0.45 0.46 0.48 0.50 0.52 0.57 0.58 0.57 0.61 0.66 0.64
0.22 0.30 0.30 0.31 0.36 0.32 0.22 0.25 0.35 0.35 0.24 0.22 0.24 0.23 0.20 0.18 0.16 0.16 0.18 0.15 0.13 0.11 0.11 0.11 0.13 0.16 0.17 0.21 0.30 0.36 0.41 0.41 0.41 0.41 0.41 0.39 0.40 0.41 0.43 0.45 0.44 0.45 0.54 0.60
0.24 0.30 0.37 0.38 0.36 0.28 0.25 0.28 0.27 0.25 0.24 0.22 0.26 0.23 0.21 0.19 0.17 0.14 0.14 0.13 0.12 0.12 0.13 0.13 0.15 0.21 0.25 0.22 0.27 0.35 0.42 0.44 0.42 0.40 0.36 0.37 0.36 0.35 0.33 0.36 0.41 0.45 0.47 0.50
0.20 0.19 0.26 0.31 0.25 0.22 0.22 0.22 0.23 0.23 0.23 0.20 0.22 0.22 0.22 0.23 0.20 0.16 0.14 0.13 0.12 0.12 0.13 0.16 0.21 0.25 0.30 0.29 0.31 0.35 0.40 0.43 0.41 0.36 0.33 0.36 0.36 0.34 0.31 0.32 0.36 0.38 0.40 0.42
0.19 0.19 0.22 0.25 0.21 0.19 0.18 0.18 0.16 0.16 0.17 0.18 0.19 0.18 0.20 0.21 0.20 0.18 0.14 0.13 0.12 0.12 0.13 0.16 0.23 0.26 0.28 0.33 0.38 0.40 0.39 0.37 0.37 0.35 0.33 0.31 0.36 0.36 0.31 0.28 0.32 0.37 0.40 0.49
0.15 0.19 0.25 0.26 0.19 0.19 0.17 0.14 0.12 0.13 0.13 0.16 0.19 0.17 0.16 0.16 0.16 0.15 0.15 0.16 0.14 0.13 0.16 0.19 0.22 0.26 0.28 0.31 0.36 0.38 0.37 0.31 0.32 0.34 0.33 0.31 0.29 0.31 0.33 0.33 0.31 0.35 0.40 0.51